User: anonymous   Login
Location: South Tamworth Observatory
(43.8246°N, 71.3026°W)
Time: 20:02:29
(UTC-04:00)
Language:

Cosmos 2208 Rocket - Orbit

View from above orbital plane
View from above orbital plane
View from above satellite
View from above satellite

Ground track
Ground track

The orbit data is extracted from the following two-line orbital elements,

1 22081U 92053B   17177.13864040 +.00000039 +00000-0 +23348-4 0  9997
2 22081 074.0450 061.1325 0035501 026.9063 333.3919 14.33381983300123
Epoch (UTC): 26 June 2017 03:19:38
Eccentricity: 0.0035501
inclination: 74.0450°
perigee height: 755 km
apogee height: 806 km
right ascension of ascending node: 61.1325°
argument of perigee: 26.9063°
revolutions per day: 14.33381983
mean anomaly at epoch: 333.3919°
orbit number at epoch: 30012

The dashed part of the orbit path shows where the satellite is in the earth's shadow,  

DLR